Downstream station:
SHEF ID: HAHO2 Gaines Creek on Hwy 1 SW of Hart
STATION TYPE:
PRECIP STAGE RIV-FLOW VOLTAGE BAT-LOAD
in ft cfs volt volt
Ccp-Rev Ccp-Rev Ccp-Rev Ccp-Rev Ccp-Rev
(US/Central)
01/29 00:00 0.00 7.33 4 12.25 12.25
01/29 01:00 0.00 7.33 4 12.17 12.17
01/29 02:00 0.00 7.33 4 12.09 12.17
01/29 03:00 0.00 7.33 4 12.09 12.17
01/29 04:00 0.00 7.33 4 11.86 12.17
01/29 05:00 0.00 7.33 4 12.01 12.09
01/29 06:00 0.00 7.33 4 12.09 12.09
01/29 07:00 0.00 7.33 4 12.01 12.09
01/29 08:00 0.00 7.33 4 12.09 12.09
01/29 09:00 0.00 7.33 4 12.09 12.09
01/29 10:00 0.00 7.33 4 12.41 12.41
01/29 11:00 0.00 7.33 4 12.89 12.89
01/29 12:00 0.00 7.32 3 13.92 13.21
01/29 13:00 0.00 7.32 3 13.37 13.44
01/29 14:00 0.00 7.32 3 13.29 13.37
01/29 15:00 0.00 7.31 3 13.13 13.05
01/29 16:00 0.00 7.31 3 13.05 12.57
01/29 17:00 0.00 7.30 3 13.05 12.49
01/29 18:00 0.00 7.31 3 12.57 12.41
01/29 19:00 0.00 7.31 3 12.33 12.41
01/29 20:00 0.00 7.31 3 12.33 12.41
01/29 21:00 0.00 7.31 3 12.33 12.33
01/29 22:00 0.00 7.31 3 12.33 12.33
01/29 23:00 0.00 7.31 3 12.25 12.25